Location: Firdgum
(53.2488°N, 5.5615°E)
Time: 23:50:00
(UTC+00:00)

Meteor 2-4 Rocket - Pass Details

Date: 08 December 2019
Orbit: 798 x 909 km, 81.2° (Epoch: 20 January)

Event Time Altitude Azimuth Distance (km) Brightness Sun altitude
Rises 06:29:01 0° 342° (NNW) 3,436 6.5 -9.6°
Reaches altitude 10° 06:31:35 10° 337° (NNW) 2,478 5.7 -9.3°
Maximum altitude 06:36:50 43° 267° (W) 1,148 4.0 -8.6°
Drops below altitude 10° 06:41:55 10° 197° (SSW) 2,399 6.2 -7.9°
Sets 06:44:22 0° 191° (S) 3,315 7.0 -7.6°
